Regional Weather Roundup
Issued by NWS Kansas City/Pleasant Hill, MO

Home | Current Version | Previous Version | Graphics & Text | Print | Product List | Glossary Off
Versions: 1 2 3 4 5 6 7 8 9 10 11 12 13 14 15 16 17 18 19 20 21 22 23 24 25 26 27 28 29 30 31 32 33 34 35 36 37 38 39 40 41 42 43 44 45 46 47 48 49 50

000
ASUS43 KEAX 302111
RWREAX

WEATHER ROUNDUP FOR EASTERN KANSAS AND NORTHWEST MISSOURI
NATIONAL WEATHER SERVICE KANSAS CITY/PLEASANT HILL MO
400 PM CDT SAT AUG 30 2014

KSZ040-057-103>105-MOZ028-029-037-043-302200-
...KANSAS CITY METROPOLITAN AREA...

CITY           SKY/WX    TMP DP  RH WIND       PRES   REMARKS
K.C. INTL      PTSUNNY   85  68  56 SW6       29.91F
K.C. DOWNTOWN  SUNNY     89  65  44 CALM      29.88F HX  91
LEES SUMMIT    MOSUNNY   86  67  52 VRB6      29.91F
OLATHE - IXD   SUNNY     90  63  40 N7        29.90F HX  91
OLATHE - OJC   MOSUNNY   87  63  44 N5        29.89F
LAWRENCE       SUNNY     95  66  38 NE6       29.89F HX  98

$$

MOZ001>008-011>017-020>025-030>033-038>040-044>046-053-054-302200-
...NORTHERN AND CENTRAL MISSOURI...

CITY           SKY/WX    TMP DP  RH WIND       PRES   REMARKS
ST. JOSEPH     MOSUNNY   86  68  54 NE3       29.90F
MOSBY          CLEAR     86  64  48 CALM      29.89F
WHITEMAN AFB   MOSUNNY   87  66  50 W6        29.89F
CLINTON        MOSUNNY   90  68  48 NW6       29.89F HX  93
SEDALIA        MOSUNNY   88  68  51 NW8       29.90F HX  91
WARSAW         NOT AVBL
MARSHALL       MOSUNNY   90  70  51 W3        29.90  HX  95
CHILLICOTHE      N/A     86  68  54 CALM      29.90F
MOBERLY        SUNNY     86  66  51 W7        29.90F
KIRKSVILLE     SUNNY     85  67  54 NW7       29.91F

$$

MOZ041-047>049-056>058-063>065-088>090-097-302200-
...EASTERN AND SOUTHERN MISSOURI...

CITY           SKY/WX    TMP DP  RH WIND       PRES   REMARKS
ST. LOUIS INTL PTSUNNY   88  71  57 SW12      29.90F HX  94
SPIRIT OF STL  PTSUNNY   84  71  65 SW7       29.88F
COLUMBIA       RAIN      76  68  76 SW18      29.91R
JEFFERSON CITY MOSUNNY   86  72  62 E8        29.86F HX  92
HANNIBAL       SUNNY     88  66  48 W6        29.88F HX  90
ROLLA          CLOUDY    72  67  84 S10       29.93F THUNDER
LEBANON        PTSUNNY   82  68  61 S8        29.93F
OSAGE BEACH    PTSUNNY   82  66  57 S6        29.90F
SPRINGFIELD    CLOUDY    79  65  62 N18       29.91F
BRANSON        PTSUNNY   93  68  43 SE12      29.96S HX  97
NEVADA         SUNNY     91  64  40 NW3       29.90F HX  93
JOPLIN         MOSUNNY   92  63  38 VRB5      29.89F HX  93
WEST PLAINS    PTSUNNY   81  69  67 SW7       29.98S

$$

IAZ060-094-KSZ022-034>040-054-083-096-NEZ052-066-093-302200-
...KANSAS...SOUTHEAST NEBRASKA AND IOWA...

CITY           SKY/WX    TMP DP  RH WIND       PRES   REMARKS
TOPEKA         SUNNY     91  65  41 CALM      29.89F HX  93
MANHATTAN      MOSUNNY   91  61  36 VRB5      29.88F HX  91
EMPORIA        SUNNY     91  58  32 E5        29.89F HX  90
CHANUTE        MOSUNNY   93  58  30 VRB6      29.88F HX  92
WICHITA        MOSUNNY   92  57  30 VRB6      29.89F HX  90
OMAHA          MOSUNNY   80  64  58 E6        29.90F
LINCOLN        SUNNY     84  61  45 MISG      29.90F
FALLS CITY     MOSUNNY   87  67  51 CALM      29.89F HX  90
LAMONI         MOSUNNY   81  67  62 SW5       29.90F
DES MOINES     MOSUNNY   83  67  58 W8        29.87F

$$




USA.gov is the U.S. government's official web portal to all federal, state and local government web resources and services.